[[{"header":{"parameterUnit":"m.s-1","parameterCategory":1,"la1":30.2991,"la2":30.254,"lo1":-89.0895,"lo2":-89.0444,"dy":0.0017,"dx":0.0017,"nx":28,"ny":28,"refTime":"2025-07-28T09:00:00:Z","depth":0,"parameterNumber":2,"parameterNumberName":"U-component_of_WINDS"},"data":[0,0,0,0,0,0,0,0,0,0,0,0,0,0,0,0,0,0,0,0,0,0,0,0,0,0,0,0,0,0,0,0,0,0,0,0,0,0,0,0,0,0,0,0,0,0,0,0,0,0,0,0,0,0,0,0,0,0,5.0236,5.0238,0,5.04,5.0401,5.0403,5.0317,5.0313,5.0308,5.0304,5.0458,5.0466,5.0474,0,0,0,0,0,0,0,0,0,0,0,0,0,4.9839,4.9847,5.0236,5.0238,5.0241,5.0399,5.0401,5.0404,5.0318,5.0312,5.0307,5.0302,5.0456,5.0465,5.0475,0,0,0,0,0,0,0,0,0,0,0,0,0,5.0008,4.985,5.0236,5.0217,5.0217,5.0399,5.0402,5.0404,5.0319,5.0312,5.0306,5.03,5.0452,5.0464,5.0476,5.0682,0,0,5.0514,5.0519,0,0,0,0,0,0,0,0,4.9998,5.0022,5.0218,5.0219,5.0219,5.0332,5.0318,5.0497,5.0321,5.028,5.0304,5.0297,5.0421,5.0435,5.0479,5.0689,5.0696,5.0515,5.0522,5.0527,5.0531,0,0,0,0,0,0,0,4.9987,5.0015,5.03,5.0221,5.0222,5.0197,5.0214,5.0351,5.0384,5.0283,5.0277,5.0298,5.0419,5.0468,5.0482,5.0698,5.0514,5.0525,5.0533,5.0537,5.1086,5.1093,0,0,0,0,0,0,4.9978,5.0006,5.0295,5.0305,5.0091,5.0209,5.0228,5.0302,5.0383,5.0389,5.0304,5.0294,5.045,5.0468,5.0487,5.0734,5.0527,5.0539,5.0546,5.1079,5.1088,5.1096,0,0,0,0,0,0,4.997,5.0005,5.0289,5.0154,5.0189,5.0223,5.0307,5.0308,5.0357,5.0399,5.0403,5.0348,5.0446,5.047,5.0635,5.0738,5.0544,5.0555,5.107,5.1082,5.1092,5.1229,0,0,0,0,0,0,4.9959,5.0002,5.0083,5.0157,5.0196,5.0437,5.0313,5.0316,5.038,5.0368,5.0441,5.0447,5.0442,5.0618,5.0648,5.0752,5.0565,5.1061,5.1075,5.1088,5.1216,5.1243,5.1267,0,0,0,0,0,4.9945,5.0111,5.0087,5.0123,5.0299,5.0444,5.0465,5.0461,5.0388,5.0468,5.0496,5.0444,5.0723,5.0635,5.0668,5.0777,5.1055,5.1071,5.1087,5.1204,5.1238,5.1267,0,0,0,0,0,0,5.0042,5.0121,5.0095,5.0291,5.0363,5.0429,5.0529,5.0497,5.0586,5.0571,5.0558,5.0575,5.0747,5.0779,5.068,5.0982,5.0877,5.0901,5.0955,5.0987,5.1013,5.1,5.0575,0,0,0,0,0,5.0088,5.0203,5.0264,5.0431,5.0469,5.0494,5.0556,5.0548,5.0619,5.0647,5.0686,5.0753,5.0856,5.0923,5.102,5.1221,5.1235,5.1312,5.1338,5.1359,5.1379,5.1488,5.1523,5.1149,5.1149,5.1149,0,0,5.018,5.0237,5.031,5.0452,5.0506,5.0623,5.0519,5.0646,5.0731,5.0664,5.0824,5.0856,5.093,5.1115,5.1198,5.1146,5.1486,5.138,5.1396,5.1405,5.1508,5.1544,5.1575,5.116,5.1158,5.1156,0,0,5.0408,5.0465,5.0611,5.067,5.0755,5.0771,5.0807,5.0881,5.09,5.1062,5.1015,5.1115,5.1292,5.1348,5.1399,5.1655,5.1611,5.1687,5.1821,5.1927,5.1957,5.1983,5.2073,5.2106,5.1707,5.1707,5.1708,0,5.0511,5.0689,5.0689,5.0822,5.0886,5.0838,5.0984,5.1039,5.115,5.1193,5.1136,5.136,5.1406,5.1603,5.1667,5.171,5.1748,5.1677,5.1954,5.198,5.2004,5.209,5.2124,5.1716,5.1715,5.1714,5.1713,0,5.0811,5.0936,5.1044,5.1159,5.1235,5.1374,5.1392,5.1468,5.1454,5.1476,5.1641,5.1696,5.1805,5.1851,5.1836,5.2047,5.2013,5.1955,5.1849,5.2048,5.2129,5.2162,5.1728,5.1725,5.1723,5.1721,0,0,5.1099,5.1219,5.1258,5.1311,5.1405,5.1499,5.1636,5.1747,5.1813,5.1892,5.2004,5.2159,5.2107,5.2166,5.2157,5.2251,5.2451,5.2182,5.2183,5.2229,5.2686,5.2728,5.2767,5.2424,5.243,5.2435,5.268,0,5.1334,5.1579,5.1585,5.1808,5.1923,5.1881,5.2,5.2069,5.2094,5.2192,5.2218,5.2328,5.2252,5.2287,5.2379,5.2407,5.2542,5.239,5.2525,5.253,5.2507,5.2809,5.2853,5.3081,5.2712,5.2717,5.2721,0,5.1638,5.1735,5.1971,5.2052,5.21,5.2208,5.2312,5.2408,5.2485,5.2496,5.2566,5.2544,5.2681,5.2575,5.2762,5.2659,5.2715,5.2738,5.2746,5.2756,5.2636,5.2826,5.3154,5.3187,5.2771,5.2767,5.2763,0,5.1824,5.2013,5.2179,5.2226,5.2324,5.2401,5.2445,5.2516,5.2584,5.2674,5.2718,5.2821,5.2876,5.2955,5.2961,5.2883,5.3151,5.3044,5.3161,5.3162,5.3217,5.3213,5.3556,5.3257,5.3256,5.3256,5.3255,0,5.2083,5.2229,5.2265,5.2367,5.2529,5.2535,5.2693,5.273,5.2795,5.2901,5.287,5.2969,5.2973,5.3074,5.308,5.3234,5.3259,5.327,5.327,5.3273,5.3271,5.3307,5.329,5.3265,5.3263,5.3261,5.3259,0,5.2316,5.2347,5.2526,5.2608,5.2632,5.2748,5.2815,5.2911,5.2936,5.3071,5.3103,5.314,5.3258,5.3274,5.3409,5.3413,5.3599,5.3582,5.3574,5.3571,5.3688,5.3676,5.4064,5.4115,5.3784,5.3788,5.379,0,5.2478,5.2591,5.2688,5.276,5.281,5.2925,5.2997,5.3007,5.3082,5.3181,5.3265,5.3382,5.3474,5.3664,5.3701,5.3805,5.3789,5.3919,5.3804,5.3804,5.379,5.3782,5.3793,5.3939,5.3943,5.3946,5.3948,0,5.2762,5.2774,5.2881,5.2995,5.3083,5.3171,5.3254,5.3314,5.3334,5.3419,5.3543,5.3616,5.3759,5.3874,5.3979,5.4019,5.3987,5.3985,5.4018,5.402,5.4011,5.4016,5.3633,5.3975,5.3972,5.397,5.3969,5.3968,5.2964,5.3063,5.3149,5.3269,5.3335,5.3415,5.3511,5.3551,5.3656,5.3777,5.3776,5.3912,5.3988,5.4126,5.4175,5.4278,5.4235,5.4282,5.4294,5.4305,5.4317,5.3998,5.4297,5.4297,5.4296,5.4295,5.4295,0,5.3245,5.33,5.3412,5.3534,5.3629,5.3599,5.369,5.377,5.3892,5.3969,5.4064,5.4206,5.4319,5.4368,5.4478,5.4552,5.454,5.458,5.4573,5.4583,5.4349,5.431,5.4588,5.4588,5.4588,5.4588,5.4588,5.4588,5.3402,5.357,5.3592,5.3791,5.3844,5.3982,5.4037,5.411,5.4172,5.4335,5.4431,5.4464,5.4529,5.4645,5.4747,5.4758,5.4798,5.4845,5.4849,5.4629,5.4599,5.4571,5.4534,5.4855,5.4855,5.5075,5.5077,5.5078]},{"header":{"parameterUnit":"m.s-1","parameterCategory":1,"la1":30.2991,"la2":30.254,"lo1":-89.0895,"lo2":-89.0444,"dy":0.0017,"dx":0.0017,"nx":28,"ny":28,"refTime":"2025-07-28T09:00:00:Z","depth":0,"parameterNumber":3,"parameterNumberName":"V-component_of_WINDS"},"data":[0,0,0,0,0,0,0,0,0,0,0,0,0,0,0,0,0,0,0,0,0,0,0,0,0,0,0,0,0,0,0,0,0,0,0,0,0,0,0,0,0,0,0,0,0,0,0,0,0,0,0,0,0,0,0,0,0,0,0.019,0.0187,0,-0.0123,-0.0127,-0.013,-0.0249,-0.0248,-0.0247,-0.0246,-0.0568,-0.0578,-0.0587,0,0,0,0,0,0,0,0,0,0,0,0,0,0.0685,0.0676,0.019,0.0186,0.0183,-0.0122,-0.0127,-0.0131,-0.0249,-0.0248,-0.0247,-0.0246,-0.0565,-0.0576,-0.0588,0,0,0,0,0,0,0,0,0,0,0,0,0,0.0431,0.0674,0.0191,0.0087,0.0074,-0.0122,-0.0127,-0.0132,-0.025,-0.0248,-0.0247,-0.0245,-0.0562,-0.0575,-0.0589,-0.0705,0,0,-0.0633,-0.0639,0,0,0,0,0,0,0,0,0.0445,0.0413,0.0106,0.0094,0.0079,-0.0146,-0.0071,-0.0324,-0.025,-0.0127,-0.0246,-0.0245,-0.0429,-0.0454,-0.0516,-0.072,-0.0734,-0.0634,-0.0643,-0.0649,-0.0653,0,0,0,0,0,0,0,0.0463,0.0426,0.0066,0.0102,0.0085,0.0055,0.0021,-0.0119,-0.0282,-0.0137,-0.0147,-0.0182,-0.0436,-0.0502,-0.0524,-0.0739,-0.0634,-0.0646,-0.0655,-0.066,-0.1056,-0.1058,0,0,0,0,0,0,0.0498,0.0441,0.0076,0.0057,0.027,0.0045,0.0007,-0.0075,-0.0281,-0.0311,-0.0183,-0.0186,-0.0478,-0.0508,-0.0536,-0.0688,-0.0648,-0.0662,-0.067,-0.1054,-0.1056,-0.1058,0,0,0,0,0,0,0.0509,0.0467,0.0089,0.0246,0.0196,0.0035,-0.0055,-0.0082,-0.0148,-0.0315,-0.0345,-0.022,-0.0478,-0.0516,-0.0663,-0.0701,-0.0668,-0.0681,-0.1051,-0.1055,-0.1057,-0.0991,0,0,0,0,0,0,0.0524,0.0472,0.0426,0.0246,0.0188,-0.0032,-0.0058,-0.0089,-0.0172,-0.0179,-0.0358,-0.0387,-0.048,-0.0641,-0.0677,-0.072,-0.0692,-0.1049,-0.1053,-0.1056,-0.099,-0.0991,-0.0992,0,0,0,0,0,0.0542,0.0457,0.0424,0.0381,0.0128,-0.0034,-0.0068,-0.0173,-0.0174,-0.0222,-0.0329,-0.0381,-0.0689,-0.0655,-0.0696,-0.0744,-0.1047,-0.1052,-0.1056,-0.099,-0.0991,-0.0992,0,0,0,0,0,0,0.0636,0.0432,0.0393,0.0247,0.0125,-0.0054,-0.0118,-0.017,-0.0296,-0.0298,-0.0423,-0.0463,-0.06,-0.0686,-0.0644,-0.0868,-0.0872,-0.0885,-0.0808,-0.081,-0.081,-0.0789,-0.0704,0,0,0,0,0,0.064,0.0526,0.0354,0.0242,0.0183,0.0044,-0.003,-0.0101,-0.0233,-0.0286,-0.0404,-0.053,-0.0657,-0.0737,-0.0862,-0.1001,-0.1044,-0.1055,-0.1055,-0.1055,-0.1066,-0.115,-0.1158,-0.1073,-0.1073,-0.1073,0,0,0.0646,0.0521,0.0456,0.0258,0.0155,0.0038,0.0001,-0.012,-0.0208,-0.0304,-0.0452,-0.0541,-0.0691,-0.0835,-0.0905,-0.0912,-0.1098,-0.1061,-0.1059,-0.1071,-0.1155,-0.1163,-0.117,-0.1076,-0.1076,-0.1075,0,0,0.0597,0.0493,0.0386,0.0284,0.0129,0.0037,0.0013,-0.0158,-0.0222,-0.0371,-0.0446,-0.0552,-0.0765,-0.087,-0.0951,-0.1036,-0.109,-0.1073,-0.1079,-0.1158,-0.1165,-0.1172,-0.1206,-0.1217,-0.1082,-0.1082,-0.1082,0,0.0623,0.0446,0.0339,0.0221,0.0135,0.0045,-0.0065,-0.0158,-0.0346,-0.0404,-0.0408,-0.0679,-0.0785,-0.0957,-0.0977,-0.1038,-0.1073,-0.1056,-0.1155,-0.1163,-0.1171,-0.1205,-0.1217,-0.108,-0.108,-0.108,-0.108,0,0.0485,0.0363,0.0296,0.0117,0.0024,-0.0088,-0.0213,-0.0294,-0.0355,-0.0446,-0.0597,-0.0727,-0.0881,-0.0926,-0.0987,-0.1106,-0.1106,-0.113,-0.1138,-0.1174,-0.1209,-0.1223,-0.1076,-0.1077,-0.1078,-0.1078,0,0,0.048,0.0246,0.0222,0.0139,-0.0038,-0.0135,-0.025,-0.04,-0.0469,-0.0594,-0.0697,-0.0874,-0.0898,-0.0989,-0.1062,-0.1131,-0.1195,-0.1148,-0.1153,-0.1156,-0.1339,-0.1324,-0.1337,-0.1229,-0.1232,-0.1234,-0.1328,0,0.0404,0.0192,0.0093,-0.0076,-0.0192,-0.0277,-0.0379,-0.0498,-0.0586,-0.0697,-0.0793,-0.0918,-0.0938,-0.0994,-0.1066,-0.1172,-0.1235,-0.1166,-0.1329,-0.1334,-0.1295,-0.1355,-0.134,-0.1423,-0.1342,-0.1344,-0.1346,0,0.0285,0.016,-0.002,-0.0184,-0.0236,-0.0325,-0.0472,-0.0575,-0.0712,-0.0771,-0.0872,-0.0942,-0.1069,-0.1062,-0.124,-0.1191,-0.1263,-0.1324,-0.133,-0.1355,-0.1346,-0.1386,-0.1451,-0.1465,-0.1368,-0.1366,-0.1365,0,0.0295,0.0082,-0.0055,-0.0122,-0.0315,-0.0377,-0.046,-0.0595,-0.0679,-0.0806,-0.0863,-0.1001,-0.1079,-0.1185,-0.1292,-0.1277,-0.146,-0.1462,-0.1516,-0.1513,-0.1556,-0.1553,-0.1639,-0.1591,-0.1591,-0.1591,-0.1591,0,0.0216,0.0108,-0.0053,-0.0138,-0.0261,-0.0373,-0.0492,-0.0582,-0.0702,-0.0806,-0.0886,-0.0982,-0.1114,-0.1227,-0.131,-0.1447,-0.1479,-0.1532,-0.1555,-0.1529,-0.1523,-0.1582,-0.1581,-0.1594,-0.1594,-0.1593,-0.1592,0,0.0203,0.0091,-0.0064,-0.0233,-0.0278,-0.0362,-0.0507,-0.0593,-0.0682,-0.0813,-0.085,-0.0991,-0.1128,-0.1243,-0.1422,-0.1478,-0.1622,-0.1645,-0.1576,-0.1589,-0.1638,-0.1634,-0.177,-0.1796,-0.1724,-0.1725,-0.1725,0,0.0157,0.0072,-0.0106,-0.0181,-0.0263,-0.0382,-0.0469,-0.058,-0.0666,-0.0828,-0.0895,-0.1037,-0.1158,-0.1373,-0.1493,-0.1631,-0.1661,-0.1699,-0.1683,-0.1655,-0.1668,-0.1664,-0.1675,-0.1702,-0.1702,-0.1702,-0.1702,0,0.0086,0.0036,-0.0085,-0.0224,-0.0324,-0.044,-0.0558,-0.0614,-0.0748,-0.0841,-0.0982,-0.1075,-0.1258,-0.14,-0.155,-0.1637,-0.1694,-0.1705,-0.1726,-0.1704,-0.1663,-0.1692,-0.1585,-0.1703,-0.1703,-0.1703,-0.1703,-0.1703,0.0051,-0.003,-0.0167,-0.0299,-0.0399,-0.0506,-0.0596,-0.0696,-0.0815,-0.0973,-0.103,-0.1175,-0.1311,-0.1519,-0.1606,-0.1722,-0.1729,-0.1758,-0.1766,-0.1773,-0.1772,-0.1639,-0.1749,-0.1749,-0.1749,-0.1749,-0.1749,0,-0.0029,-0.0121,-0.024,-0.0402,-0.0506,-0.0545,-0.0677,-0.0762,-0.0889,-0.1009,-0.1126,-0.1288,-0.1425,-0.1554,-0.1698,-0.1766,-0.1796,-0.1801,-0.1801,-0.182,-0.1755,-0.1725,-0.1775,-0.1775,-0.1775,-0.1775,-0.1775,-0.1775,-0.0083,-0.0223,-0.0289,-0.0479,-0.0571,-0.0713,-0.0786,-0.0886,-0.0983,-0.1161,-0.1275,-0.1357,-0.1482,-0.1635,-0.1763,-0.1798,-0.185,-0.1849,-0.1891,-0.1828,-0.1824,-0.1821,-0.1794,-0.1858,-0.1858,-0.1948,-0.1949,-0.1949]}]]